Location: Cogollal
(10.0582°N, 67.8466°W)
Time: 10:18:02
(UTC+00:00)

Cosmos 1674 - Pass Details

Date: 14 April 2024
Orbit: 439 x 454 km, 82.5° (Epoch: 24 May)

Event Time Altitude Azimuth Distance (km) Brightness Sun altitude
Exits shadow 09:11:33 21° 323° (NW) 1,053 4.0 -17.6°
Drops below altitude 10° 09:12:59 10° 340° (NNW) 1,547 5.0 -17.3°
Sets 09:15:10 0° 350° (N) 2,413 6.2 -16.8°
